User: anonymous   Login
Location: Voyageurs National Park
(48.5020°N, 92.9292°W)
Time: 17:04:37
(UTC-05:00)
Language:

Terra - Orbit

View from above orbital plane
View from above orbital plane
View from above satellite
View from above satellite

Ground track
Ground track

The orbit data is extracted from the following two-line orbital elements,

1 25994U 99068A   14298.23082982  .00000820  00000-0  19185-3 0  7590
2 25994 098.2010 011.0932 0001450 099.2621 260.8769 14.57129934790005
Epoch (UTC): 25 October 2014 05:32:23
Eccentricity: 0.0001450
inclination: 98.2010°
perigee height: 701 km
apogee height: 703 km
right ascension of ascending node: 11.0932°
argument of perigee: 99.2621°
revolutions per day: 14.57129934
mean anomaly at epoch: 260.8769°
orbit number at epoch: 79000

The dashed part of the orbit path shows where the satellite is in the earth's shadow,  

DLR